Temp
-9 -9 -10 -10 -10 -11 -11 -10 -11 -10 -10 -10 -9 -9 -9 -8 -8 -8 -8 -8 -7 -7 -7 -7 -7 -7 -7 -7 -7 -7 -7 -7 -7 -7 -6 -6 -6 -6 -6 -6 -6 -6 -7 -7 -7 -6 -6 -6 -7 -6 -6 -5 -5 -5 -5 -4 -4 -4 -4 -4 -4 -4 -4
-10 -10 -11 -10 -10 -10 -11 -11 -11 -10 -10 -10 -9 -9 -9 -8 -8 -8 -8 -8 -7 -7 -7 -7 -7 -7 -7 -6 -6 -7 -7 -7 -7 -7 -7 -6 -5 -5 -6 -6 -6 -6 -7 -7 -7 -7 -6 -6 -6 -6 -6 -6 -5 -5 -5 -4 -4 -4 -4 -4 -4 -4 -4
-11 -10 -10 -10 -10 -10 -11 -11 -11 -10 -10 -10 -10 -9 -9 -8 -8 -8 -8 -7 -7 -7 -7 -7 -7 -7 -6 -6 -6 -7 -7 -7 -7 -7 -7 -7 -6 -6 -6 -6 -6 -6 -6 -6 -7 -7 -7 -7 -7 -7 -6 -6 -6 -5 -5 -5 -5 -4 -4 -4 -4 -4 -4
-11 -10 -10 -10 -10 -10 -10 -10 -10 -9 -10 -10 -10 -9 -9 -9 -8 -8 -8 -8 -8 -8 -7 -7 -7 -7 -6 -6 -6 -7 -7 -7 -7 -7 -7 -7 -7 -7 -7 -7 -6 -6 -6 -6 -6 -6 -6 -7 -6 -6 -6 -6 -6 -6 -5 -5 -5 -5 -4 -4 -4 -4 -4
-12 -10 -10 -10 -10 -10 -10 -10 -10 -10 -10 -10 -10 -10 -9 -9 -8 -8 -8 -8 -8 -8 -8 -7 -7 -7 -6 -6 -7 -7 -7 -7 -7 -7 -7 -7 -7 -7 -7 -7 -7 -7 -7 -6 -6 -6 -6 -6 -6 -6 -6 -6 -6 -6 -6 -6 -5 -5 -5 -4 -4 -4 -4
-12 -11 -11 -11 -11 -11 -11 -11 -10 -10 -11 -11 -10 -10 -9 -8 -9 -9 -9 -8 -8 -8 -8 -8 -7 -7 -6 -6 -7 -7 -7 -8 -8 -8 -8 -7 -7 -7 -7 -7 -7 -7 -7 -7 -6 -6 -6 -6 -6 -6 -6 -6 -6 -6 -6 -6 -6 -5 -5 -5 -5 -5 -5
-12 -13 -13 -12 -11 -10 -11 -11 -11 -11 -11 -11 -11 -10 -9 -9 -9 -10 -9 -9 -9 -8 -8 -8 -7 -7 -7 -6 -7 -7 -7 -8 -8 -8 -8 -7 -8 -8 -7 -8 -7 -7 -7 -7 -7 -6 -6 -7 -6 -6 -6 -6 -6 -6 -6 -6 -6 -6 -6 -5 -5 -5 -5
-13 -13 -13 -11 -10 -10 -10 -10 -10 -11 -11 -11 -11 -11 -10 -10 -10 -9 -9 -9 -9 -9 -9 -8 -8 -8 -7 -7 -7 -7 -7 -8 -8 -8 -8 -8 -8 -8 -8 -8 -8 -8 -7 -7 -7 -6 -7 -7 -7 -7 -7 -7 -6 -6 -6 -6 -6 -6 -6 -6 -6 -6 -6
-14 -13 -12 -11 -11 -11 -11 -11 -11 -11 -11 -11 -11 -11 -10 -10 -10 -10 -9 -9 -9 -9 -9 -9 -9 -9 -8 -8 -7 -7 -7 -8 -8 -8 -8 -8 -8 -8 -8 -8 -8 -8 -8 -7 -7 -7 -7 -7 -7 -7 -7 -7 -7 -6 -6 -7 -7 -7 -7 -7 -6 -6 -6
-13 -13 -13 -12 -12 -12 -12 -12 -12 -11 -11 -12 -11 -11 -11 -10 -10 -10 -10 -10 -10 -9 -9 -9 -10 -9 -9 -8 -8 -7 -7 -8 -8 -8 -8 -8 -8 -8 -8 -8 -8 -8 -8 -8 -7 -7 -7 -7 -7 -7 -7 -7 -6 -6 -6 -7 -7 -7 -7 -7 -7 -7 -7
-13 -13 -14 -13 -13 -13 -12 -12 -12 -11 -11 -11 -11 -11 -11 -10 -11 -11 -10 -10 -10 -10 -9 -9 -9 -9 -9 -8 -8 -8 -8 -8 -8 -8 -8 -8 -8 -8 -8 -8 -8 -8 -8 -8 -8 -8 -7 -7 -7 -7 -7 -7 -6 -6 -7 -7 -7 -7 -7 -7 -7 -7 -7
-12 -13 -13 -13 -13 -13 -13 -12 -12 -11 -11 -11 -11 -10 -11 -11 -11 -11 -10 -10 -10 -10 -10 -10 -9 -9 -9 -9 -8 -8 -8 -8 -8 -8 -8 -8 -8 -8 -8 -8 -8 -8 -8 -8 -8 -8 -8 -7 -7 -7 -7 -6 -6 -6 -6 -6 -6 -6 -6 -6 -6 -6 -7
-13 -13 -13 -13 -12 -13 -13 -13 -13 -11 -11 -11 -11 -10 -11 -11 -11 -10 -10 -9 -10 -10 -10 -10 -10 -9 -9 -9 -9 -8 -8 -8 -8 -8 -8 -8 -8 -8 -8 -8 -8 -8 -8 -8 -8 -8 -8 -8 -7 -7 -6 -6 -6 -6 -6 -6 -6 -6 -6 -6 -6 -6 -7
-14 -14 -13 -13 -13 -13 -13 -12 -11 -10 -10 -11 -11 -11 -12 -12 -11 -10 -10 -9 -10 -10 -10 -10 -10 -9 -9 -9 -9 -9 -8 -8 -8 -8 -8 -8 -8 -8 -8 -8 -8 -8 -8 -8 -8 -8 -8 -8 -7 -7 -7 -7 -7 -7 -6 -6 -6 -6 -6 -6 -6 -6 -6
-13 -13 -13 -13 -13 -13 -13 -12 -11 -10 -10 -11 -11 -11 -12 -11 -11 -10 -10 -10 -10 -10 -10 -10 -10 -10 -9 -9 -9 -9 -9 -8 -8 -8 -8 -8 -8 -8 -8 -8 -8 -8 -8 -8 -8 -8 -8 -8 -7 -7 -7 -7 -7 -7 -7 -6 -6 -6 -6 -7 -7 -6 -6
-13 -13 -13 -13 -14 -14 -13 -13 -12 -11 -11 -12 -11 -12 -12 -12 -11 -10 -10 -10 -10 -10 -9 -10 -10 -10 -10 -10 -9 -9 -9 -9 -8 -8 -8 -8 -8 -8 -8 -8 -8 -8 -8 -8 -8 -8 -8 -8 -8 -8 -8 -8 -8 -7 -7 -7 -7 -7 -7 -7 -7 -7 -6
-14 -14 -14 -14 -14 -14 -13 -13 -13 -12 -12 -13 -12 -12 -12 -12 -11 -11 -11 -11 -10 -10 -10 -10 -10 -10 -10 -10 -9 -9 -9 -9 -9 -9 -9 -9 -8 -8 -8 -8 -8 -8 -8 -8 -8 -8 -8 -8 -8 -8 -8 -8 -8 -8 -7 -7 -7 -7 -7 -7 -7 -7 -6
-14 -15 -16 -15 -14 -14 -13 -13 -13 -13 -13 -13 -13 -13 -12 -12 -11 -11 -11 -11 -10 -10 -10 -11 -11 -10 -10 -10 -10 -9 -9 -9 -9 -9 -9 -9 -9 -9 -9 -9 -8 -8 -8 -8 -8 -8 -8 -8 -8 -8 -8 -8 -8 -8 -8 -8 -8 -7 -7 -7 -7 -7 -7
-14 -15 -16 -15 -14 -14 -14 -14 -13 -13 -13 -13 -13 -13 -12 -11 -11 -11 -11 -11 -11 -10 -11 -11 -11 -10 -10 -10 -10 -10 -10 -10 -9 -9 -9 -9 -9 -9 -9 -9 -9 -9 -9 -9 -9 -9 -9 -9 -8 -8 -8 -8 -8 -8 -8 -8 -8 -7 -7 -7 -7 -7 -7
-15 -15 -16 -15 -14 -14 -14 -13 -13 -13 -13 -13 -13 -12 -12 -12 -12 -12 -11 -12 -11 -11 -11 -11 -11 -11 -11 -11 -10 -10 -10 -10 -10 -10 -9 -9 -9 -9 -9 -9 -9 -9 -9 -9 -9 -9 -9 -9 -9 -9 -8 -9 -9 -8 -8 -8 -8 -7 -7 -7 -7 -7 -7
-15 -15 -15 -15 -14 -14 -13 -13 -13 -13 -13 -13 -13 -13 -13 -12 -12 -12 -12 -12 -12 -12 -12 -12 -12 -11 -11 -11 -11 -11 -10 -10 -10 -9 -10 -10 -9 -9 -9 -9 -9 -9 -9 -9 -9 -9 -9 -9 -9 -9 -9 -9 -9 -9 -9 -8 -8 -8 -7 -7 -7 -7 -7
-15 -15 -15 -15 -15 -14 -14 -13 -13 -13 -14 -13 -13 -13 -13 -13 -13 -13 -13 -12 -12 -12 -12 -12 -12 -12 -11 -11 -11 -11 -10 -10 -10 -10 -10 -10 -9 -9 -9 -9 -9 -9 -9 -9 -9 -9 -9 -9 -9 -9 -9 -9 -9 -9 -9 -9 -9 -8 -8 -7 -7 -7 -7
-15 -15 -15 -15 -15 -15 -14 -14 -13 -14 -14 -13 -13 -13 -13 -13 -13 -13 -13 -13 -13 -12 -13 -13 -12 -12 -12 -12 -11 -11 -11 -10 -10 -10 -10 -10 -10 -9 -9 -9 -9 -9 -9 -9 -9 -9 -9 -9 -9 -9 -9 -9 -9 -9 -9 -9 -9 -9 -8 -8 -8 -7 -7
-15 -15 -15 -15 -15 -15 -14 -14 -14 -14 -14 -13 -13 -14 -14 -13 -13 -13 -13 -13 -13 -13 -14 -13 -12 -12 -12 -12 -11 -11 -11 -11 -11 -10 -10 -10 -10 -10 -9 -9 -10 -9 -9 -9 -9 -9 -9 -9 -9 -9 -9 -9 -9 -9 -9 -9 -9 -9 -9 -8 -8 -8 -8
-15 -15 -15 -15 -15 -15 -14 -14 -14 -14 -14 -14 -14 -14 -14 -13 -13 -13 -13 -13 -13 -13 -13 -13 -12 -12 -12 -12 -11 -11 -11 -11 -11 -11 -11 -11 -10 -10 -10 -10 -10 -9 -9 -9 -9 -9 -9 -9 -9 -9 -9 -9 -9 -9 -9 -9 -9 -9 -9 -9 -9 -8 -8
-15 -15 -15 -15 -16 -15 -15 -15 -14 -14 -15 -15 -14 -14 -14 -13 -13 -13 -13 -13 -13 -13 -12 -12 -12 -12 -12 -12 -12 -12 -12 -12 -12 -12 -11 -11 -11 -10 -10 -10 -10 -10 -10 -10 -9 -9 -9 -9 -9 -9 -9 -9 -9 -9 -9 -9 -9 -9 -9 -9 -9 -9 -8
-16 -15 -15 -16 -16 -15 -15 -15 -14 -15 -15 -15 -14 -14 -14 -14 -13 -13 -13 -13 -13 -12 -12 -13 -13 -13 -12 -12 -12 -12 -12 -12 -12 -12 -11 -11 -11 -11 -11 -11 -10 -10 -10 -10 -9 -9 -9 -9 -9 -9 -9 -9 -9 -9 -9 -8 -8 -9 -9 -8 -9 -9 -8
-16 -16 -16 -16 -16 -15 -15 -15 -15 -15 -15 -15 -15 -15 -14 -14 -14 -14 -13 -13 -13 -13 -13 -13 -13 -13 -13 -13 -12 -12 -12 -12 -12 -12 -12 -11 -11 -11 -11 -11 -11 -11 -11 -11 -10 -10 -9 -9 -9 -9 -9 -9 -9 -9 -9 -8 -8 -8 -8 -8 -8 -8 -8
-16 -16 -16 -16 -16 -15 -15 -15 -15 -15 -15 -15 -15 -15 -14 -14 -14 -14 -13 -13 -13 -13 -13 -14 -13 -13 -13 -13 -13 -13 -13 -13 -12 -12 -12 -12 -12 -12 -11 -11 -11 -11 -11 -11 -11 -10 -10 -10 -9 -9 -9 -9 -9 -9 -9 -9 -8 -8 -8 -8 -8 -8 -8
-16 -16 -16 -16 -16 -16 -15 -15 -15 -15 -15 -15 -15 -15 -15 -14 -14 -14 -13 -13 -13 -14 -14 -14 -14 -13 -13 -13 -13 -13 -13 -13 -13 -13 -13 -13 -12 -12 -12 -12 -12 -12 -12 -12 -11 -11 -11 -10 -10 -10 -10 -9 -9 -9 -9 -9 -9 -9 -8 -8 -8 -8 -8
-16 -16 -16 -16 -16 -16 -16 -16 -16 -16 -16 -15 -15 -15 -15 -14 -14 -14 -14 -14 -14 -14 -14 -14 -14 -14 -14 -13 -13 -13 -13 -13 -13 -13 -13 -13 -13 -13 -12 -12 -12 -12 -12 -12 -12 -12 -11 -11 -11 -11 -10 -10 -10 -9 -9 -9 -9 -9 -9 -9 -8 -8 -8
-17 -17 -16 -16 -16 -16 -16 -16 -16 -16 -16 -16 -16 -15 -15 -15 -14 -14 -15 -14 -14 -14 -14 -14 -14 -14 -14 -14 -13 -13 -13 -13 -13 -13 -13 -13 -13 -13 -13 -13 -12 -12 -12 -12 -12 -12 -12 -12 -11 -11 -11 -11 -10 -10 -10 -10 -9 -9 -9 -9 -9 -8 -8
-17 -17 -17 -17 -17 -17 -17 -16 -16 -16 -16 -16 -16 -16 -15 -15 -15 -15 -15 -15 -14 -14 -14 -14 -14 -14 -14 -14 -13 -13 -13 -13 -13 -13 -13 -13 -13 -13 -13 -13 -13 -13 -12 -12 -12 -12 -12 -12 -12 -12 -12 -11 -11 -11 -11 -10 -10 -10 -9 -9 -9 -9 -9
-17 -17 -17 -17 -17 -17 -17 -17 -16 -16 -16 -16 -16 -16 -16 -16 -16 -16 -15 -15 -15 -15 -15 -15 -14 -14 -14 -14 -14 -14 -14 -14 -14 -14 -14 -14 -14 -13 -13 -13 -13 -13 -13 -13 -12 -12 -12 -12 -12 -12 -12 -12 -12 -12 -11 -11 -11 -10 -10 -10 -10 -9 -9
-18 -18 -17 -17 -17 -17 -17 -17 -17 -17 -16 -16 -16 -16 -16 -16 -16 -16 -16 -16 -16 -15 -15 -15 -15 -15 -15 -15 -14 -14 -14 -14 -14 -14 -14 -14 -14 -14 -14 -14 -13 -13 -13 -13 -13 -12 -12 -12 -12 -12 -12 -12 -12 -12 -12 -12 -11 -11 -11 -11 -10 -10 -10
-18 -18 -18 -17 -17 -17 -17 -17 -17 -17 -17 -16 -16 -16 -16 -16 -16 -16 -16 -16 -16 -16 -16 -15 -15 -15 -15 -15 -15 -15 -15 -15 -15 -15 -15 -15 -15 -14 -14 -14 -14 -14 -14 -13 -13 -13 -13 -13 -12 -12 -12 -12 -12 -12 -12 -12 -12 -12 -11 -11 -11 -11 -11
-18 -18 -18 -18 -18 -18 -18 -18 -18 -18 -17 -17 -17 -17 -17 -17 -17 -16 -16 -16 -16 -16 -16 -16 -16 -16 -15 -15 -15 -15 -15 -15 -15 -15 -15 -15 -15 -15 -15 -15 -15 -15 -14 -14 -14 -14 -13 -13 -13 -13 -12 -12 -12 -12 -12 -12 -12 -12 -12 -12 -12 -11 -11
Height
5822 5827 5829 5830 5834 5839 5841 5842 5845 5850 5856 5862 5865 5867 5869 5872 5874 5874 5873 5872 5869 5870 5870 5871 5873 5876 5877 5880 5882 5883 5886 5888 5890 5893 5895 5894 5895 5900 5903 5905 5906 5907 5909 5910 5912 5914 5916 5916 5917 5919 5919 5920 5921 5923 5925 5927 5929 5931 5932 5934 5935 5937 5938
5817 5822 5825 5827 5831 5836 5838 5841 5843 5846 5852 5857 5861 5863 5865 5869 5872 5871 5869 5869 5868 5869 5870 5869 5871 5873 5874 5876 5879 5882 5884 5886 5888 5891 5893 5892 5891 5894 5899 5903 5905 5907 5908 5909 5911 5913 5915 5916 5917 5920 5920 5919 5920 5922 5924 5926 5928 5929 5931 5932 5934 5935 5937
5813 5818 5822 5824 5828 5832 5834 5837 5839 5843 5849 5854 5856 5858 5860 5866 5870 5867 5865 5867 5867 5867 5868 5868 5869 5870 5870 5873 5878 5881 5882 5884 5886 5889 5891 5891 5890 5891 5895 5900 5903 5905 5906 5907 5909 5911 5912 5913 5916 5919 5920 5919 5920 5922 5923 5925 5926 5928 5929 5931 5932 5934 5935
5811 5814 5819 5822 5826 5830 5831 5834 5838 5843 5847 5851 5853 5856 5858 5862 5866 5865 5863 5862 5861 5862 5863 5863 5865 5866 5866 5871 5877 5880 5881 5883 5885 5888 5889 5889 5889 5891 5894 5898 5900 5903 5904 5906 5908 5909 5910 5911 5912 5915 5917 5916 5918 5920 5922 5923 5925 5926 5928 5929 5931 5932 5934
5807 5810 5816 5821 5824 5828 5831 5835 5838 5841 5845 5848 5851 5854 5856 5858 5862 5863 5859 5857 5857 5857 5858 5859 5860 5861 5863 5869 5876 5878 5879 5881 5883 5885 5887 5888 5888 5889 5893 5896 5899 5901 5903 5904 5905 5906 5907 5908 5909 5911 5913 5914 5916 5918 5920 5922 5923 5925 5926 5928 5929 5930 5932
5807 5810 5813 5815 5818 5823 5828 5832 5836 5841 5844 5845 5847 5852 5855 5857 5858 5857 5854 5853 5855 5856 5856 5858 5858 5858 5861 5867 5872 5876 5878 5878 5880 5883 5885 5886 5887 5888 5891 5894 5898 5900 5901 5902 5902 5902 5903 5905 5907 5909 5911 5913 5915 5917 5919 5921 5922 5923 5925 5926 5927 5928 5929
5808 5809 5809 5811 5815 5820 5823 5828 5833 5839 5842 5843 5846 5851 5855 5856 5853 5851 5851 5851 5852 5854 5855 5856 5856 5856 5860 5864 5868 5872 5874 5875 5877 5880 5882 5884 5886 5887 5889 5892 5895 5897 5900 5902 5903 5903 5903 5904 5906 5908 5910 5911 5913 5915 5917 5919 5921 5922 5923 5925 5927 5928 5928
5805 5806 5806 5809 5814 5818 5821 5825 5829 5834 5839 5843 5844 5845 5846 5849 5847 5846 5848 5848 5848 5850 5852 5853 5855 5856 5858 5861 5864 5868 5871 5872 5874 5877 5879 5881 5883 5885 5887 5890 5891 5893 5896 5900 5902 5902 5902 5903 5906 5907 5908 5910 5912 5913 5915 5917 5919 5920 5922 5925 5927 5929 5929
5802 5804 5804 5807 5811 5815 5820 5824 5826 5830 5834 5835 5836 5837 5839 5843 5843 5842 5842 5842 5844 5846 5847 5850 5853 5854 5855 5857 5860 5864 5868 5869 5871 5873 5876 5878 5880 5883 5885 5887 5889 5890 5892 5895 5897 5898 5899 5902 5904 5905 5907 5909 5911 5913 5913 5914 5916 5917 5919 5922 5926 5928 5928
5801 5802 5803 5805 5808 5811 5814 5817 5820 5824 5826 5828 5831 5834 5836 5839 5841 5837 5835 5836 5839 5842 5844 5846 5848 5850 5852 5854 5857 5861 5865 5867 5868 5871 5873 5875 5877 5880 5882 5885 5887 5889 5890 5892 5893 5895 5897 5899 5901 5903 5905 5906 5908 5910 5912 5912 5913 5914 5916 5918 5922 5924 5925
5797 5798 5800 5803 5806 5808 5810 5812 5815 5819 5823 5826 5828 5830 5832 5834 5835 5832 5831 5834 5837 5839 5841 5843 5844 5846 5850 5852 5855 5858 5861 5863 5865 5867 5870 5872 5875 5877 5879 5882 5884 5887 5888 5890 5892 5893 5895 5897 5899 5901 5902 5903 5905 5906 5909 5910 5911 5912 5914 5915 5918 5920 5922
5795 5796 5797 5800 5803 5805 5809 5812 5814 5815 5819 5822 5823 5828 5831 5831 5830 5829 5830 5833 5834 5836 5838 5839 5841 5844 5847 5850 5852 5854 5858 5860 5862 5864 5866 5869 5872 5874 5876 5878 5881 5884 5886 5888 5890 5892 5893 5894 5895 5897 5898 5900 5902 5902 5904 5906 5908 5911 5912 5914 5916 5918 5919
5793 5794 5796 5799 5801 5802 5804 5807 5808 5809 5815 5819 5822 5826 5829 5827 5826 5828 5830 5832 5832 5832 5835 5837 5839 5841 5844 5847 5849 5851 5854 5857 5858 5861 5863 5866 5869 5871 5873 5875 5878 5880 5883 5885 5887 5889 5890 5892 5892 5893 5895 5898 5900 5901 5901 5902 5904 5907 5909 5911 5913 5915 5915
5789 5791 5794 5796 5798 5800 5800 5802 5804 5807 5812 5816 5818 5823 5824 5822 5822 5825 5829 5829 5828 5828 5831 5835 5837 5839 5842 5844 5846 5849 5851 5853 5855 5858 5860 5863 5866 5868 5870 5872 5874 5877 5879 5881 5883 5885 5887 5889 5889 5889 5892 5895 5897 5900 5901 5900 5899 5902 5904 5906 5909 5912 5912
5786 5788 5791 5793 5795 5797 5798 5800 5802 5803 5807 5811 5813 5817 5818 5816 5818 5823 5826 5826 5825 5826 5829 5832 5835 5837 5840 5841 5843 5845 5848 5849 5852 5855 5857 5859 5862 5864 5867 5869 5871 5873 5875 5877 5879 5881 5883 5885 5886 5886 5888 5890 5893 5896 5898 5897 5896 5898 5901 5903 5906 5908 5909
5785 5787 5789 5791 5792 5794 5796 5798 5798 5800 5804 5808 5809 5812 5814 5813 5814 5820 5822 5821 5822 5824 5827 5830 5832 5834 5836 5837 5840 5842 5845 5847 5850 5852 5855 5857 5859 5861 5863 5866 5868 5870 5872 5874 5875 5877 5879 5880 5882 5883 5885 5887 5889 5892 5894 5894 5894 5896 5898 5900 5902 5904 5906
5784 5786 5787 5787 5789 5790 5793 5795 5796 5798 5801 5803 5805 5808 5809 5809 5811 5815 5816 5817 5820 5822 5824 5827 5828 5829 5831 5834 5837 5840 5842 5844 5846 5849 5851 5853 5855 5857 5860 5862 5864 5866 5868 5870 5872 5873 5875 5876 5878 5880 5882 5883 5886 5888 5890 5892 5893 5895 5896 5898 5899 5900 5903
5783 5785 5784 5784 5785 5787 5790 5792 5793 5794 5797 5800 5803 5803 5803 5805 5809 5811 5812 5814 5816 5819 5821 5822 5823 5826 5829 5831 5834 5837 5839 5840 5842 5845 5847 5849 5851 5854 5856 5858 5861 5863 5865 5867 5869 5870 5872 5873 5875 5877 5879 5881 5883 5885 5887 5889 5890 5892 5894 5895 5896 5897 5899
5780 5781 5780 5780 5782 5784 5786 5787 5789 5792 5795 5797 5798 5798 5800 5804 5806 5807 5809 5810 5812 5815 5817 5817 5819 5822 5826 5827 5829 5832 5834 5836 5838 5840 5843 5845 5847 5850 5852 5854 5857 5859 5861 5863 5865 5867 5868 5870 5872 5873 5875 5877 5879 5881 5883 5885 5887 5889 5890 5892 5893 5894 5895
5776 5777 5776 5777 5779 5781 5783 5785 5788 5791 5792 5793 5794 5795 5798 5801 5802 5804 5806 5806 5808 5810 5812 5813 5815 5818 5821 5822 5823 5826 5829 5830 5833 5836 5839 5841 5843 5846 5848 5851 5853 5855 5857 5859 5861 5863 5864 5866 5868 5870 5872 5873 5875 5877 5879 5881 5883 5885 5886 5888 5890 5891 5892
5772 5775 5774 5774 5776 5778 5780 5782 5785 5787 5788 5789 5790 5791 5793 5796 5798 5800 5801 5802 5804 5806 5807 5809 5811 5813 5814 5815 5817 5820 5823 5826 5829 5832 5835 5837 5839 5841 5844 5846 5849 5850 5852 5855 5856 5858 5860 5862 5864 5866 5868 5869 5871 5873 5875 5877 5879 5881 5883 5884 5886 5888 5889
5769 5772 5771 5771 5773 5775 5776 5777 5780 5782 5783 5784 5787 5788 5789 5792 5793 5795 5798 5799 5800 5803 5803 5802 5804 5807 5808 5810 5812 5815 5818 5822 5825 5828 5831 5833 5835 5837 5839 5842 5844 5846 5848 5850 5852 5854 5856 5858 5860 5862 5864 5866 5867 5869 5871 5873 5874 5876 5878 5880 5881 5883 5885
5766 5767 5768 5769 5770 5771 5771 5773 5776 5778 5779 5781 5785 5785 5785 5787 5789 5792 5794 5795 5796 5799 5797 5795 5799 5803 5801 5803 5809 5812 5814 5818 5821 5823 5826 5828 5830 5832 5835 5838 5840 5841 5843 5846 5847 5850 5852 5853 5855 5857 5860 5862 5863 5864 5866 5868 5870 5872 5874 5875 5876 5878 5879
5762 5764 5765 5766 5767 5766 5767 5769 5772 5774 5776 5779 5781 5779 5779 5782 5785 5788 5790 5791 5792 5794 5792 5790 5795 5797 5795 5800 5807 5808 5810 5814 5816 5818 5820 5823 5825 5827 5831 5833 5834 5835 5839 5841 5842 5844 5847 5848 5850 5853 5855 5856 5858 5860 5862 5864 5866 5868 5869 5871 5872 5873 5874
5759 5760 5762 5763 5762 5762 5764 5765 5767 5770 5773 5774 5774 5773 5775 5779 5781 5783 5786 5785 5785 5787 5788 5788 5791 5792 5793 5798 5802 5802 5805 5809 5812 5813 5815 5817 5819 5822 5824 5826 5828 5830 5833 5835 5836 5839 5842 5843 5845 5848 5850 5851 5852 5855 5857 5858 5861 5863 5865 5866 5868 5869 5870
5756 5757 5759 5759 5757 5758 5761 5761 5763 5767 5768 5767 5768 5771 5773 5774 5776 5778 5780 5779 5779 5784 5786 5785 5788 5790 5792 5795 5797 5797 5800 5804 5806 5808 5810 5812 5814 5816 5818 5819 5822 5826 5827 5828 5830 5833 5836 5837 5839 5842 5844 5845 5847 5849 5851 5853 5855 5858 5860 5861 5863 5865 5865
5753 5754 5755 5754 5754 5755 5757 5757 5759 5762 5763 5763 5766 5768 5768 5770 5771 5772 5774 5775 5778 5782 5782 5782 5785 5787 5788 5790 5792 5793 5794 5797 5799 5802 5807 5809 5811 5812 5812 5813 5817 5820 5821 5822 5824 5826 5828 5831 5834 5835 5837 5840 5842 5843 5845 5847 5849 5852 5854 5856 5858 5859 5861
5749 5749 5750 5750 5751 5752 5753 5754 5755 5757 5759 5761 5762 5762 5763 5766 5767 5767 5769 5773 5776 5777 5777 5777 5780 5782 5783 5785 5788 5788 5789 5790 5793 5797 5802 5804 5805 5806 5807 5809 5811 5813 5814 5816 5818 5820 5822 5825 5827 5829 5831 5833 5835 5837 5839 5840 5843 5845 5847 5849 5852 5853 5855
5744 5745 5746 5747 5747 5748 5748 5750 5752 5753 5755 5755 5756 5757 5759 5761 5762 5762 5764 5768 5772 5772 5772 5773 5774 5776 5778 5780 5783 5784 5784 5785 5788 5791 5794 5796 5798 5801 5802 5804 5807 5808 5808 5809 5811 5813 5815 5818 5820 5822 5825 5826 5828 5830 5832 5834 5836 5837 5839 5842 5845 5847 5848
5740 5741 5742 5743 5744 5743 5745 5747 5748 5749 5749 5750 5752 5753 5753 5755 5759 5760 5760 5764 5767 5767 5767 5768 5769 5771 5773 5775 5778 5779 5779 5781 5783 5785 5787 5789 5792 5794 5796 5799 5802 5803 5803 5803 5805 5807 5809 5811 5813 5815 5817 5819 5821 5823 5825 5827 5828 5830 5833 5835 5837 5839 5841
5736 5736 5737 5739 5739 5739 5740 5743 5743 5743 5745 5746 5747 5748 5748 5751 5755 5756 5755 5758 5760 5761 5761 5763 5765 5766 5768 5770 5772 5774 5775 5776 5777 5779 5781 5783 5785 5788 5790 5793 5795 5796 5798 5799 5800 5801 5802 5804 5806 5808 5810 5812 5814 5816 5818 5819 5821 5823 5825 5828 5829 5832 5834
5731 5731 5732 5734 5735 5735 5737 5738 5738 5739 5740 5741 5742 5743 5744 5747 5749 5749 5750 5752 5754 5755 5757 5758 5760 5761 5763 5765 5768 5770 5771 5771 5772 5773 5775 5776 5778 5781 5783 5786 5788 5790 5793 5794 5795 5796 5797 5798 5799 5801 5803 5804 5806 5809 5811 5812 5814 5816 5818 5820 5822 5824 5827
5726 5727 5728 5729 5730 5732 5733 5733 5733 5734 5735 5737 5738 5740 5741 5742 5743 5744 5745 5746 5748 5750 5752 5753 5754 5756 5757 5760 5763 5764 5765 5766 5767 5768 5769 5770 5772 5774 5776 5778 5781 5784 5786 5788 5790 5791 5791 5792 5793 5794 5796 5797 5799 5801 5803 5805 5807 5809 5811 5813 5815 5817 5819
5720 5721 5722 5724 5725 5726 5727 5729 5729 5728 5729 5732 5735 5736 5737 5737 5738 5739 5741 5742 5743 5745 5746 5748 5749 5750 5752 5754 5756 5758 5759 5760 5761 5762 5763 5764 5765 5767 5769 5771 5774 5776 5779 5781 5783 5785 5786 5787 5787 5788 5789 5791 5792 5794 5796 5798 5800 5802 5804 5806 5807 5809 5811
5715 5716 5717 5719 5720 5721 5722 5724 5724 5724 5724 5727 5730 5732 5732 5733 5733 5735 5736 5737 5739 5740 5741 5743 5745 5746 5747 5749 5750 5752 5753 5755 5756 5757 5758 5758 5759 5760 5762 5764 5766 5768 5771 5773 5775 5778 5780 5781 5782 5783 5783 5784 5785 5787 5789 5791 5793 5795 5797 5799 5800 5802 5804
5711 5712 5713 5715 5716 5716 5717 5719 5719 5719 5720 5722 5724 5726 5728 5728 5729 5731 5732 5733 5734 5735 5736 5738 5740 5741 5742 5744 5746 5747 5748 5749 5750 5751 5752 5753 5753 5754 5756 5757 5759 5760 5762 5765 5767 5770 5772 5774 5776 5777 5777 5778 5779 5780 5782 5784 5786 5788 5790 5791 5793 5794 5796
5706 5707 5708 5710 5711 5712 5713 5714 5715 5715 5716 5717 5718 5720 5722 5723 5725 5726 5727 5728 5729 5730 5732 5733 5734 5735 5738 5739 5740 5742 5742 5743 5745 5746 5747 5748 5749 5750 5751 5751 5752 5753 5755 5757 5759 5761 5763 5765 5768 5769 5770 5772 5773 5774 5775 5777 5779 5780 5781 5783 5784 5786 5788
Wind_Speed
37 38 38 35 31 23 25 33 30 23 20 15 15 13 15 18 19 22 28 35 39 38 37 36 35 33 31 30 30 28 25 24 24 22 21 22 22 20 19 17 16 16 17 18 19 21 24 23 21 21 20 20 20 22 23 23 21 19 18 17 15 15 15
35 37 38 41 40 27 20 24 26 25 22 18 18 20 20 21 21 25 30 35 41 41 39 38 36 36 35 33 30 28 25 23 23 22 20 22 25 23 19 18 17 16 16 18 19 22 24 20 19 21 21 20 19 20 22 23 22 21 20 19 17 16 16
35 40 40 43 44 34 26 25 27 29 26 20 22 27 27 24 22 26 29 32 38 40 41 43 41 39 39 36 30 28 28 24 21 20 20 22 25 24 20 18 18 18 18 19 20 23 26 23 21 22 21 20 19 19 20 22 23 23 22 21 19 17 17
32 40 42 42 45 43 38 33 31 32 29 20 22 28 28 25 25 28 30 32 37 41 42 44 45 44 42 35 26 24 28 28 23 21 22 23 25 24 22 20 19 19 19 19 17 19 26 26 23 23 22 21 20 20 20 21 22 23 23 22 21 20 18
30 39 40 37 39 41 40 36 31 30 27 17 18 27 30 29 27 25 33 37 38 39 40 40 43 46 45 37 27 23 26 28 27 25 24 25 26 25 23 21 20 18 18 19 16 15 22 25 21 22 23 22 22 22 21 21 22 23 23 22 23 22 21
23 28 31 34 37 38 36 34 30 28 25 17 16 23 30 33 26 21 32 39 38 38 38 37 40 44 44 40 35 31 29 29 30 29 27 26 26 26 24 23 22 20 18 18 18 15 18 22 21 21 22 21 22 23 22 22 22 22 23 23 24 24 23
9 12 21 32 40 42 40 37 32 26 24 21 16 17 25 31 27 25 27 30 33 35 36 38 41 43 41 40 38 35 33 32 32 31 31 29 28 27 27 25 24 23 21 19 17 15 16 20 21 21 21 22 23 24 24 23 22 23 23 23 23 24 24
10 11 21 32 38 41 42 42 39 31 24 22 20 20 27 31 29 29 30 29 31 32 34 37 39 38 37 37 37 34 32 32 33 32 32 31 30 29 28 27 25 26 24 21 18 15 15 21 23 21 22 24 24 24 23 22 22 23 24 23 23 25 24
13 15 23 30 35 37 37 38 41 37 28 23 27 30 33 35 31 28 31 34 35 35 36 36 35 35 35 35 35 34 31 30 32 33 33 33 32 31 30 29 27 27 26 23 21 17 14 19 24 24 24 25 25 24 22 21 21 23 25 24 25 26 26
16 18 19 22 30 36 38 37 38 41 36 28 30 34 34 38 37 34 34 35 34 35 35 34 34 34 34 32 30 30 31 31 31 32 34 34 34 33 32 31 29 28 28 26 24 22 19 18 21 25 25 26 26 24 22 21 23 25 28 27 26 27 27
22 21 18 20 26 32 40 43 41 44 44 35 34 38 38 38 40 42 41 35 30 31 31 32 35 36 34 32 30 29 30 32 33 33 34 35 36 35 34 33 32 30 29 28 26 25 24 22 22 24 25 25 26 26 24 25 26 28 30 30 29 29 28
29 25 22 22 25 26 28 32 35 41 45 42 40 39 37 38 41 44 44 39 33 32 29 29 34 36 34 32 30 30 30 31 34 36 36 36 37 38 37 36 34 33 31 31 30 29 28 27 26 26 26 26 27 28 28 29 29 30 30 30 30 29 28
29 28 25 23 26 26 22 24 32 40 43 43 44 41 37 39 42 44 45 43 40 38 34 31 30 32 34 32 29 30 30 31 33 35 37 37 38 39 39 38 37 35 34 33 33 33 32 31 31 30 27 25 26 26 28 30 31 30 29 28 28 27 27
30 31 29 26 27 29 28 30 37 44 44 42 43 43 41 43 45 45 45 44 42 42 41 37 33 30 31 31 30 29 30 32 33 35 36 37 38 40 41 40 39 38 36 36 36 36 35 34 34 32 28 25 23 22 23 27 30 29 28 27 27 26 25
38 39 35 31 29 31 32 34 37 41 43 43 44 45 46 47 47 46 46 46 45 44 43 41 38 34 32 32 33 32 31 32 33 35 37 37 38 40 41 42 41 39 38 38 37 38 37 37 36 34 31 28 25 21 20 23 26 27 27 26 26 26 25
35 37 37 34 31 32 33 34 36 38 37 37 39 40 42 44 44 44 45 47 48 47 45 42 39 38 38 37 36 35 34 34 33 33 36 37 38 39 41 43 43 42 41 39 38 39 39 38 37 35 34 33 30 27 25 23 24 25 25 25 27 29 28
28 26 29 32 34 36 34 32 34 37 34 33 35 35 38 41 42 42 43 43 44 46 45 43 40 39 39 41 40 38 36 36 36 35 35 37 38 39 40 42 44 44 43 42 40 40 40 40 39 37 36 35 33 32 29 27 26 26 25 26 28 31 32
26 18 18 27 35 37 34 32 34 35 33 31 30 32 37 40 39 40 42 42 42 44 44 44 44 42 40 40 40 39 37 37 39 39 38 38 39 40 40 41 43 45 45 44 43 42 41 42 41 40 38 36 35 33 32 30 29 28 28 28 27 30 34
25 20 19 27 33 34 33 34 36 36 34 33 33 32 35 37 37 38 42 42 42 43 44 43 44 43 42 42 42 41 40 40 40 40 41 41 41 41 41 41 42 44 45 45 45 44 44 43 43 43 41 39 37 36 35 34 32 31 31 30 28 28 32
27 25 25 28 30 32 33 35 36 35 34 35 37 36 35 37 37 37 39 40 41 42 43 42 42 42 42 43 44 44 43 43 43 41 41 42 43 43 43 42 42 43 44 46 46 46 46 45 44 44 44 42 40 39 38 37 36 34 34 33 31 30 31
28 28 28 28 28 30 31 31 33 33 32 32 34 35 35 36 35 35 38 39 39 41 43 41 41 43 42 42 43 45 45 45 46 44 42 43 44 44 44 44 44 44 44 45 47 47 48 47 46 46 46 45 43 41 40 40 39 38 37 37 36 35 33
29 30 31 30 29 29 29 30 31 31 32 33 33 34 36 36 35 35 37 38 37 37 41 42 41 42 44 44 43 45 46 46 46 47 46 45 45 45 45 45 45 46 46 46 47 48 48 49 49 48 48 48 46 45 43 42 42 41 40 40 40 39 38
29 31 34 34 32 30 30 31 31 30 32 33 32 33 36 38 37 36 36 38 38 36 37 42 43 43 45 46 44 45 47 46 46 48 48 48 48 48 48 47 46 47 48 47 48 48 48 50 51 51 51 50 50 49 47 46 45 44 43 43 44 43 42
27 30 32 32 32 32 32 32 31 31 32 32 32 34 37 38 38 37 36 39 41 40 39 42 43 44 46 46 45 45 46 45 45 47 48 49 50 50 49 49 49 50 49 49 50 50 49 50 51 52 52 53 53 53 52 50 49 48 47 46 46 46 46
24 27 28 28 31 34 34 34 32 29 29 31 34 35 37 38 40 39 38 40 43 45 46 46 45 45 46 46 46 48 47 45 44 44 46 48 50 51 50 50 50 51 51 51 52 52 51 52 52 52 53 54 55 56 55 54 53 53 51 50 49 49 49
24 26 26 27 30 31 32 34 33 29 27 30 33 33 35 38 40 40 41 43 44 45 46 46 46 46 47 47 47 48 48 46 45 45 45 45 46 48 50 51 51 51 52 53 53 53 53 53 54 54 54 55 56 57 58 58 57 56 56 55 53 53 53
26 27 28 28 29 29 30 32 33 31 29 30 31 32 33 35 38 40 41 42 42 42 43 44 44 45 46 47 47 47 48 48 48 48 48 47 46 46 48 50 51 50 51 53 54 55 55 55 55 55 55 55 56 57 58 59 59 59 60 60 59 57 57
29 30 30 30 30 31 31 32 32 31 30 31 32 32 33 34 36 38 39 38 38 39 41 43 43 44 45 45 46 47 48 49 49 49 48 48 49 49 48 49 50 49 50 51 52 54 55 56 56 56 56 56 57 58 58 59 60 61 61 62 63 62 62
30 30 31 30 31 32 33 33 32 32 31 32 34 34 34 35 36 37 38 37 36 37 38 40 41 42 43 44 45 46 47 48 48 48 47 47 48 49 50 50 49 49 49 50 51 51 53 54 55 56 57 57 57 58 58 59 60 60 61 62 63 64 65
31 31 31 30 30 31 33 33 33 33 34 34 35 35 37 37 37 37 38 37 36 37 38 39 39 40 40 41 42 44 46 47 47 47 47 46 46 47 48 49 49 48 48 49 50 50 51 52 53 54 56 57 57 57 58 59 60 60 61 62 62 62 64
33 33 34 33 32 33 34 33 34 34 35 35 35 36 37 38 37 38 38 38 38 39 40 40 40 40 39 40 40 41 43 44 45 46 46 46 46 46 46 47 47 48 47 48 49 50 50 51 51 52 53 54 56 56 57 58 59 60 60 61 62 62 63
34 34 35 35 35 35 35 35 35 34 34 35 35 36 36 36 36 37 38 39 40 41 41 42 42 42 41 41 41 41 42 43 44 45 45 45 46 45 45 46 46 47 47 47 47 48 49 50 51 51 52 53 54 55 56 57 58 59 60 60 61 62 62
34 34 35 35 35 35 36 37 37 37 36 36 35 34 34 34 34 34 35 37 40 41 41 42 43 44 44 44 43 43 43 44 45 45 46 46 46 46 46 46 46 46 46 46 47 47 48 50 51 51 52 52 53 53 54 55 56 57 58 59 59 60 61
34 35 36 36 36 37 38 38 39 40 40 39 36 33 33 34 34 34 34 35 36 38 39 39 40 42 43 43 44 44 45 46 46 47 47 48 48 48 48 47 47 47 47 47 47 48 48 49 50 51 52 53 53 53 54 54 55 56 57 57 58 58 59
33 34 35 36 36 37 39 40 41 41 42 42 40 37 35 36 36 35 34 34 35 35 35 35 36 37 38 39 40 41 43 44 45 46 47 48 49 49 50 50 49 49 49 49 49 49 49 50 51 52 53 53 54 54 54 54 55 55 56 57 57 58 58
32 33 34 34 35 35 37 38 40 41 42 42 41 40 39 39 38 38 36 36 35 35 35 35 35 35 35 36 36 37 38 40 41 43 44 46 47 48 49 50 50 50 51 51 51 51 51 52 52 53 54 54 55 55 56 56 56 55 56 56 57 57 58
35 35 34 35 35 35 36 36 37 39 41 41 41 41 41 40 40 41 40 39 38 38 38 37 37 37 36 36 36 37 37 38 39 39 40 41 42 43 44 45 47 48 48 49 50 51 51 52 53 54 55 56 56 57 57 58 57 57 58 58 58 58 58
Wind_Direction
218 212 208 210 210 205 208 211 210 200 190 202 216 217 225 221 215 217 216 221 229 236 240 242 242 241 240 239 238 241 248 250 243 236 235 234 230 222 219 225 232 232 232 236 240 238 226 213 214 220 220 218 217 218 221 223 222 223 223 224 225 224 224
221 212 206 213 213 202 201 212 216 213 199 194 207 209 208 207 212 222 223 229 235 238 241 244 244 243 243 242 237 233 239 245 240 235 237 238 236 231 225 227 231 232 237 242 241 234 227 220 222 226 223 219 221 222 223 224 223 223 223 223 224 225 226
227 217 209 214 215 207 203 202 207 211 197 193 212 207 196 195 207 223 227 230 237 240 242 245 247 247 245 243 239 232 233 241 240 234 237 241 241 240 238 236 236 236 236 236 235 228 223 222 225 230 228 223 225 229 228 227 226 225 225 223 222 225 227
226 220 214 217 219 217 218 213 210 207 192 198 221 205 190 187 196 219 230 225 226 231 236 240 242 243 243 241 238 230 230 238 242 238 238 241 243 244 243 241 240 244 243 241 248 240 225 218 218 226 229 225 226 229 230 229 229 230 229 226 223 223 226
222 222 217 215 218 219 223 223 214 201 191 196 216 206 193 181 182 216 235 228 225 226 229 233 238 240 240 237 236 231 230 237 240 239 239 241 244 246 246 244 242 248 251 249 259 253 225 214 214 221 225 224 225 228 229 231 231 232 232 230 226 223 224
223 226 218 212 212 212 214 217 209 198 198 198 197 202 196 183 186 225 236 230 231 232 231 234 239 242 240 239 239 237 236 240 240 239 239 240 243 246 248 248 246 248 252 251 258 255 227 215 217 222 225 228 229 229 231 232 233 235 237 237 233 226 223
203 208 216 212 213 213 211 210 206 198 205 208 193 195 199 197 212 236 237 235 235 233 235 238 240 244 245 243 242 240 239 241 239 237 238 237 240 242 244 249 250 249 247 245 250 251 232 221 221 224 228 232 231 228 229 231 234 239 242 245 244 237 230
179 185 216 213 212 217 217 216 211 200 198 209 210 208 205 206 221 233 233 240 241 236 236 238 239 245 248 245 242 238 238 238 235 234 235 236 238 240 242 246 251 253 252 249 248 246 230 220 219 222 226 229 229 228 226 227 232 239 243 244 242 242 240
204 211 222 214 209 213 214 215 215 204 191 197 208 210 206 206 216 227 228 233 240 240 240 241 242 245 245 242 239 235 233 233 233 232 231 235 238 238 240 243 247 254 258 258 257 255 242 224 217 219 224 226 227 227 226 227 230 236 240 237 234 239 244
206 218 222 212 208 208 204 203 207 205 199 198 201 203 206 208 213 223 227 229 234 235 237 241 243 241 238 236 235 231 228 230 232 231 229 232 236 237 240 241 243 249 254 257 260 259 255 241 226 223 225 227 226 223 222 226 230 235 238 234 231 237 241
206 210 210 203 204 210 210 208 210 211 210 207 202 201 207 210 212 219 224 226 230 230 232 236 237 237 237 236 234 229 227 228 231 231 229 229 232 235 238 240 241 244 248 252 256 257 257 254 245 235 230 227 226 223 221 223 228 233 235 235 234 236 236
215 212 207 205 204 207 211 213 218 220 213 211 211 208 208 212 215 219 223 225 230 230 229 231 233 233 234 235 234 230 227 227 229 230 230 229 230 232 234 237 239 240 242 246 249 252 254 254 253 246 236 229 226 225 223 222 224 227 232 236 235 233 234
220 217 212 213 208 198 193 202 217 221 214 213 218 214 209 214 218 219 222 225 230 232 231 232 234 233 231 233 235 232 229 227 227 229 231 230 230 231 233 235 236 237 239 241 244 247 249 251 253 249 243 240 239 235 230 227 226 228 232 235 233 231 234
217 219 217 219 212 200 200 212 222 223 217 215 218 214 212 218 223 223 225 227 230 232 233 233 235 235 233 233 234 232 230 229 228 228 229 230 229 229 231 233 235 236 236 238 241 244 246 248 249 246 243 245 247 243 237 231 229 233 237 237 233 232 234
218 220 220 222 218 211 214 222 227 226 221 218 218 216 217 223 227 228 229 230 232 234 236 237 239 240 238 237 235 234 233 232 232 229 228 229 229 228 229 230 232 234 236 237 239 242 244 246 247 245 244 245 245 246 245 239 234 236 240 239 237 233 231
221 223 225 226 224 223 222 225 229 230 226 224 224 222 221 225 230 230 230 231 233 236 238 239 241 241 240 239 239 238 237 236 235 233 230 229 230 229 229 229 230 232 233 235 237 240 243 245 246 247 248 248 249 251 254 250 243 243 245 244 241 236 232
222 226 230 228 229 232 230 229 234 235 231 230 230 228 225 227 229 229 230 231 232 235 238 239 240 241 240 241 242 242 242 239 237 237 235 232 231 230 230 229 230 231 232 233 234 237 240 243 246 248 249 250 252 252 253 251 248 246 245 245 243 239 234
218 221 232 231 232 234 234 234 236 236 234 233 232 231 229 228 228 229 231 233 234 236 237 238 240 240 240 241 242 242 242 242 239 238 238 235 233 231 230 230 230 231 231 232 233 235 237 240 243 246 248 249 251 252 251 251 250 247 244 244 245 243 238
213 211 229 235 233 233 234 234 234 234 234 232 230 230 229 228 229 229 230 233 234 234 236 237 240 241 241 240 241 240 241 242 241 239 238 237 235 233 232 231 231 231 231 232 233 234 236 238 240 243 246 247 249 251 252 252 251 250 247 245 244 246 243
217 214 228 236 235 234 235 235 236 237 237 235 234 237 235 233 233 232 231 234 235 235 236 237 238 239 240 240 239 239 239 239 239 239 239 238 238 236 235 233 233 232 232 232 233 234 235 237 238 241 244 246 247 249 251 252 252 252 251 249 245 245 245
223 221 231 238 239 238 235 234 234 235 236 235 234 236 237 235 235 234 233 235 236 237 238 239 237 237 238 239 238 238 238 238 239 239 239 239 238 237 237 235 235 235 235 234 234 235 235 236 237 238 241 244 246 247 249 251 252 252 252 253 250 247 245
229 228 234 239 240 240 238 234 232 232 234 233 231 233 234 233 232 232 231 231 233 234 237 238 236 235 237 238 237 237 238 238 239 240 239 239 239 238 238 237 237 237 237 236 236 236 236 236 237 238 239 240 242 244 246 248 250 251 252 253 254 252 249
230 230 235 238 239 242 242 237 233 233 235 233 231 235 236 233 231 231 230 231 231 231 236 237 234 233 237 237 235 236 237 237 239 240 240 240 241 241 240 240 240 239 238 239 239 238 238 238 238 238 238 239 240 241 242 244 246 248 250 252 254 255 254
229 229 232 236 238 239 241 240 237 237 239 236 235 237 237 234 232 232 231 231 231 230 235 238 235 234 238 239 237 237 237 236 237 239 241 241 241 242 242 242 243 242 241 240 240 240 240 240 239 239 239 240 240 240 241 241 242 244 247 249 252 254 256
230 229 228 231 236 237 239 240 240 240 241 239 236 237 238 235 234 233 232 233 232 232 236 239 239 238 240 241 242 241 239 237 236 238 241 242 242 243 243 243 243 243 243 243 242 241 241 242 241 240 240 241 241 241 241 240 241 242 244 245 247 250 254
234 233 229 231 235 237 238 240 240 240 241 239 236 238 239 238 237 235 234 235 236 237 239 241 242 242 243 243 245 246 245 243 241 239 238 241 244 246 246 245 244 244 245 245 245 244 243 243 243 242 242 242 242 242 242 242 241 241 242 244 245 247 249
238 237 235 235 237 237 237 239 239 238 240 242 242 242 241 240 240 239 238 238 239 240 242 243 242 243 244 244 246 248 249 248 246 243 241 242 245 247 249 249 248 247 247 247 247 247 246 245 245 245 244 244 244 244 244 243 243 242 242 243 244 246 247
238 238 237 238 239 239 239 240 240 240 241 243 245 244 242 241 241 242 241 240 240 241 243 244 244 243 243 244 245 247 249 249 250 249 247 246 246 247 248 249 250 251 251 250 249 248 248 248 247 247 247 247 246 246 246 245 245 245 244 243 244 245 247
240 240 241 241 241 241 241 242 243 243 243 243 244 245 245 242 241 243 243 240 239 241 243 244 245 244 243 243 244 245 247 249 250 251 250 249 248 248 248 249 250 252 254 254 253 252 251 250 249 249 249 249 249 248 248 248 247 247 247 246 245 246 247
243 242 242 241 242 243 243 243 245 245 244 244 244 245 246 244 242 244 245 243 241 242 243 243 245 245 244 243 244 244 246 248 249 250 250 250 250 249 249 249 250 251 253 254 255 255 254 253 252 251 250 250 250 250 250 250 250 249 249 249 248 248 248
242 242 241 239 240 242 242 241 242 243 244 245 245 245 247 247 246 246 247 245 243 244 245 245 245 245 245 245 244 245 247 248 249 250 250 251 250 250 250 250 249 250 251 253 254 256 256 256 255 254 253 252 251 251 251 251 251 251 251 250 250 250 250
240 241 242 241 241 242 244 244 244 244 245 246 246 247 247 248 247 246 246 245 244 245 246 246 247 247 247 246 246 246 247 249 250 251 252 252 252 251 250 249 249 249 250 250 252 254 255 256 257 256 256 255 254 253 252 252 252 252 252 252 251 251 251
239 240 242 242 241 242 243 245 246 246 246 245 246 248 249 248 247 246 246 245 245 246 246 247 248 248 248 248 248 248 248 249 251 252 253 254 254 254 253 251 250 250 249 248 249 251 253 254 256 256 257 257 257 256 255 254 253 253 253 253 253 252 252
237 238 239 239 240 241 241 243 245 247 247 246 246 247 248 248 247 247 247 247 247 246 247 247 248 249 250 250 250 249 250 250 252 253 254 255 256 256 256 256 254 253 251 250 249 248 249 251 253 255 256 257 257 257 257 256 256 255 254 254 254 254 253
239 239 240 240 240 241 241 241 243 245 247 247 245 244 245 247 248 248 249 249 249 248 248 248 248 249 250 250 251 251 251 251 252 253 254 256 257 258 258 258 258 257 256 254 253 251 250 250 251 253 254 256 256 257 257 257 257 256 256 255 255 255 254
244 243 243 243 243 243 244 243 243 244 247 248 247 244 244 246 248 248 248 249 250 250 250 251 251 251 251 251 251 252 252 252 252 253 254 255 257 258 259 260 260 260 260 259 258 257 255 254 253 253 254 255 256 257 257 257 257 257 257 256 256 255 255
246 245 244 245 245 247 247 247 246 245 246 247 247 246 245 244 245 247 248 248 249 250 251 252 252 252 252 252 252 252 252 252 252 252 253 254 255 257 258 260 261 261 262 261 261 261 260 259 257 256 256 256 256 257 258 258 258 258 258 257 256 255 255